FENGYUN 1C DEB, 32458

Orbit data source: Space-Track

FENGYUN 1C DEB, 32458 is space debris in SSO originally from a launch on Mon, 10 May 1999 UTC launched from the Taiyaun Space Center, China (TSC). Fengyun 1C debris stems from the Chinese weather satellite Fengyun-1C, which was intentionally destroyed by a Chinese anti-satellite missile in 2007. This event dramatically increased the amount of space debris, with thousands of trackable fragments posing hazards to satellites and human spaceflight. The Fengyun 1C debris cloud has become a focal point in discussions about space sustainability and the need for international regulations to prevent the creation of new debris.

Loading next visibility...
Identifier
32458, 1999-025DBW
Orbit
SSO
Country
Flag of CNCN / PRC
Related business
Manufacturer
Unknown
Mission
Spacecraft
Bus & Motor
Unknown
Mass
Unknown
Launch date (UTC)
1999-05-10 (27 years ago)
Launch vehicle
Unknown
Launch site
Taiyaun Space Center, China (TSC)
Object type
Payload
Rocket body
Debris
Shape & HBR
Unknown shape, 0.1 m
Radar Cross Section
Small (<0.1 m²)

Expand to show TLE details & history
Last TLE update: 3 days ago

TLE from 3 days ago
0 FENGYUN 1C DEB
1 32458U 99025DBW 26068.31475430  .00008791  00000-0  16718-2 0  9996
2 32458  99.0373 101.4429 0041524 109.8451 250.7231 14.63836234690555
Epoch: 2026-03-09T07:33Z
TLE epoch observation values (Epoch: 2026-03-09T07:33:14.771Z)
Latitude
-0.00006°
Longitude
-178.87811°
Altitude
693.565 km
Speed
7.504 km/s
True Right ascension
06h 45m 46s
True Declination
0° 00' 00"
Sunlit
Object was in daylight at epoch
Visualization orbit readout
Latitude
Unknown
Longitude
Unknown
Altitude
Unknown
Speed
Unknown
Apparent Right ascension
Unknown
Apparent Declination
Unknown
Sunlit
N/A
Visualization observer readout
Local Sidereal Time
19:03:30
Azimuth
Unknown
Elevation
Unknown
Doppler factor
Unknown
Orbital elements
Apogee altitude
707.23 km
Perigee altitude
648.631 km
Semi-major axis
7,056.068 km
Eccentricity
0.00415
Inclination
99.0373°
RAAN
101.4429°
Arg. of periapsis
109.8451°
True anomaly
250.27472°
Mean anomaly
250.7231°
Eccentric anomaly
250.49883°
Mean motion
3.66184 °/min
Orbital period
98.31 mins
BSTAR
0.0016718
Loading maneuver chart data...
Computing Atmospheric mass density...

Documentation

Showing up to 5 results
|